Weather History for Wayne, NE

Change the Weather History Date:

Tuesday, August 12, 2014

  Actual Average (KOFK) Record (KOFK)
Temperature  
Mean Temperature 62 °F 74 °F  
Max Temperature 76 °F 85 °F 104 °F (1936)
Min Temperature 49 °F 63 °F 43 °F (1964)
Degree Days  
Heating Degree Days 2 0  
Month to date heating degree days 0  
Since 1 June heating degree days 34  
Since 1 July heating degree days 4  
Cooling Degree Days 0 9  
Month to date cooling degree days 113  
Year to date cooling degree days 674  
Since 1 June cooling degree days 613  
Growing Degree Days 12 (Base 50)    
Moisture  
Dew Point 55 °F    
Average Humidity 76    
Maximum Humidity 98    
Minimum Humidity 47    
Precipitation  
Precipitation 0.00 in 0.11 in 2.47 in (1966)
Month to date precipitation 1.35  
Year to date precipitation 18.63  
Snow  
Snow 0.00 in 0.00 in - ()
Month to date snowfall 0.0  
Since 1 July snowfall 0.0  
Snow Depth -    
Sea Level Pressure  
Sea Level Pressure 30.15 in    
Wind  
Wind Speed 2 mph (NNW)    
Max Wind Speed 10 mph    
Max Gust Speed 22 mph    
Visibility 10 miles    
Events      
T = Trace of Precipitation, MM = Missing Value Source: NWS Daily Summary

Daily Weather History Graph

Daily Weather History Graph

Search for Another Location

Airport:

Trip Planner

Search our weather history database for the weather conditions in past years. The results will help you decide how hot, cold, wet, or windy it might be!

Date:

Astronomy

Aug. 12, 2014 Rise Set
Actual Time 6:32 AM CDT 8:32 PM CDT
Civil Twilight 6:01 AM CDT 9:03 PM CDT
Nautical Twilight 5:24 AM CDT 9:40 PM CDT
Astronomical Twilight 4:43 AM CDT 10:21 PM CDT
Moon 9:36 PM CDT (8/12) 8:54 AM CDT (8/12)
Length of Visible Light 15h 01m
Length of Day
14h 00m
Waning Gibbous, 94% of the Moon is Illuminated
Aug 12
Waning Gibbous
Aug 17
Last Quarter
Aug 25
New
Sep 2
First Quarter
Sep 8
Full

Hourly Weather History & Observations

Time (CDT) Temp. Dew Point Humidity Pressure Visibility Wind Dir Wind Speed Gust Speed Precip Events Conditions
3:15 AM 51.3 °F 50.4 °F 97% 30.17 in 10.0 mi Calm Calm - N/A   Clear
3:35 AM 51.1 °F 49.8 °F 95% 30.17 in 10.0 mi Calm Calm - N/A   Clear
3:55 AM 50.0 °F 49.5 °F 98% 30.17 in 7.0 mi Calm Calm - N/A   Clear
4:15 AM 50.0 °F 49.1 °F 97% 30.17 in 10.0 mi Calm Calm - N/A   Clear
4:35 AM 49.5 °F 48.9 °F 98% 30.17 in 10.0 mi Calm Calm - N/A   Clear
4:55 AM 49.5 °F 48.7 °F 97% 30.17 in 10.0 mi Calm Calm - N/A   Clear
5:35 AM 50.0 °F 49.1 °F 97% 30.17 in 10.0 mi South 3.5 mph - N/A   Clear
5:55 AM 50.0 °F 49.1 °F 97% 30.17 in 10.0 mi Calm Calm - N/A   Clear
6:15 AM 49.6 °F 48.7 °F 97% 30.17 in 10.0 mi SSW 3.5 mph - N/A   Clear
6:35 AM 49.5 °F 48.6 °F 97% 30.17 in 10.0 mi Calm Calm - N/A   Clear
6:55 AM 49.5 °F 48.7 °F 97% 30.18 in 10.0 mi Calm Calm - N/A   Clear
7:15 AM 50.9 °F 50.0 °F 97% 30.18 in 10.0 mi Calm Calm - N/A   Clear
7:35 AM 52.9 °F 51.8 °F 96% 30.18 in 10.0 mi Calm Calm - N/A   Clear
7:55 AM 55.0 °F 53.2 °F 94% 30.19 in 10.0 mi Calm Calm - N/A   Clear
8:15 AM 57.4 °F 55.0 °F 92% 30.19 in 10.0 mi Calm Calm - N/A   Clear
8:35 AM 59.7 °F 55.2 °F 85% 30.19 in 10.0 mi Calm Calm - N/A   Clear
8:55 AM 61.7 °F 57.4 °F 86% 30.20 in 10.0 mi Calm Calm - N/A   Clear
9:15 AM 63.9 °F 57.7 °F 80% 30.20 in 10.0 mi NNW 3.5 mph - N/A   Clear
9:35 AM 64.8 °F 57.7 °F 78% 30.19 in 10.0 mi Calm Calm - N/A   Clear
9:55 AM 66.9 °F 58.5 °F 74% 30.19 in 10.0 mi Calm Calm - N/A   Clear
10:15 AM 68.4 °F 57.4 °F 68% 30.20 in 10.0 mi WNW 5.8 mph - N/A   Clear
10:35 AM 69.8 °F 58.1 °F 66% 30.19 in 10.0 mi NNW 6.9 mph - N/A   Clear
10:55 AM 70.9 °F 57.2 °F 62% 30.19 in 10.0 mi NNW 6.9 mph - N/A   Clear
12:35 PM 73.0 °F 55.6 °F 54% 30.18 in 10.0 mi NNW 8.1 mph - N/A   Clear
12:55 PM 73.9 °F 56.8 °F 55% 30.17 in 10.0 mi North 8.1 mph - N/A   Scattered Clouds
1:15 PM 74.3 °F 54.9 °F 51% 30.17 in 10.0 mi North 10.4 mph - N/A   Scattered Clouds
1:35 PM 74.1 °F 56.8 °F 55% 30.17 in 10.0 mi NNW 9.2 mph - N/A   Scattered Clouds
2:15 PM 75.4 °F 57.9 °F 54% 30.15 in 10.0 mi NNW 6.9 mph - N/A   Clear
2:35 PM 75.4 °F 55.9 °F 51% 30.15 in 10.0 mi North 5.8 mph - N/A   Clear
3:15 PM 75.7 °F 56.8 °F 52% 30.14 in 10.0 mi NNW 6.9 mph 21.9 mph N/A   Clear
3:55 PM 76.1 °F 56.1 °F 50% 30.13 in 10.0 mi North 5.8 mph - N/A   Clear
4:15 PM 76.1 °F 56.5 °F 50% 30.13 in 10.0 mi NNE 3.5 mph - N/A   Clear
4:35 PM 76.3 °F 55.8 °F 49% 30.13 in 10.0 mi Calm Calm - N/A   Clear
4:55 PM 76.5 °F 56.1 °F 49% 30.13 in 10.0 mi NNW 3.5 mph - N/A   Clear
5:15 PM 76.5 °F 54.7 °F 47% 30.12 in 10.0 mi NNW 6.9 mph - N/A   Clear
5:35 PM 76.3 °F 54.5 °F 47% 30.12 in 10.0 mi North 5.8 mph - N/A   Clear
5:55 PM 76.1 °F 56.1 °F 50% 30.12 in 10.0 mi Calm Calm - N/A   Clear
6:15 PM 76.1 °F 54.9 °F 48% 30.11 in 10.0 mi North 3.5 mph - N/A   Clear
6:55 PM 75.2 °F 56.3 °F 52% 30.11 in 10.0 mi Calm Calm - N/A   Clear
7:15 PM 74.8 °F 57.0 °F 54% 30.11 in 10.0 mi Calm Calm - N/A   Clear
7:35 PM 73.6 °F 60.6 °F 64% 30.10 in 10.0 mi Calm Calm - N/A   Clear
7:55 PM 72.5 °F 59.9 °F 64% 30.10 in 10.0 mi Calm Calm - N/A   Clear
8:15 PM 70.7 °F 61.5 °F 73% 30.10 in 10.0 mi Calm Calm - N/A   Clear
8:35 PM 65.7 °F 61.7 °F 87% 30.10 in 10.0 mi Calm Calm - N/A   Clear
8:55 PM 62.8 °F 59.0 °F 87% 30.10 in 10.0 mi East 3.5 mph - N/A   Clear
9:35 PM 61.2 °F 58.6 °F 91% 30.11 in 10.0 mi Calm Calm - N/A   Clear
10:15 PM 58.8 °F 57.0 °F 94% 30.12 in 10.0 mi Calm Calm - N/A   Clear
10:35 PM 58.1 °F 56.5 °F 94% 30.12 in 10.0 mi SW 3.5 mph - N/A   Clear
10:55 PM 57.9 °F 56.3 °F 94% 30.12 in 10.0 mi Calm Calm - N/A   Clear
11:15 PM 57.2 °F 55.9 °F 96% 30.12 in 10.0 mi Calm Calm - N/A   Clear
11:35 PM 56.5 °F 55.4 °F 96% 30.12 in 10.0 mi Calm Calm - N/A   Clear
11:55 PM 56.1 °F 55.2 °F 97% 30.13 in 10.0 mi Calm Calm - N/A   Clear